Tracking 35274 objects as of 11-Sep-2026
HD Live streaming from Space Station
objects crossing your sky now

STARLINK 1032


STARLINK 1032 is no longer on orbit
STARLINK 1032 is classified as:


NORAD ID: 44737
Int'l Code: 2019-074AA
Launch date: November 11, 2019
Source: United States (US)
Launch site: AIR FORCE EASTERN TEST RANGE (AFETR)
Decay date: 2025-03-26
Your satellite tracking list
Your tracking list is empty




NASA's NSSDC Master Catalog

Two Line Element Set (TLE):
1 44737U 19074AA  25084.71487008  .09721750  12342-4  88542-3 0  9997
2 44737  53.0302 272.0337 0004997 292.5814 165.3940 16.38108285296898
Source of the keplerian elements: AFSPC